Theta_e
288 290 292 297 294 296 298 296 299 303 302 301 300 299 298 297 296 296 295 296 296 296 297 297 297 297 297
287 288 289 292 291 292 295 296 294 302 301 300 299 298 297 296 295 294 294 294 294 294 295 295 295 296 296
286 287 287 290 288 290 290 289 293 299 300 300 299 298 296 295 294 293 292 292 292 292 293 293 293 294 295
287 288 289 287 289 288 284 285 287 293 296 295 297 297 296 295 294 292 291 291 291 292 292 291 291 292 293
287 286 285 287 289 286 283 282 283 284 284 286 288 287 288 294 292 292 291 290 290 290 291 291 291 291 291
287 287 287 288 288 286 282 281 280 282 282 283 285 284 285 285 292 293 291 290 290 290 290 290 290 290 289
289 288 287 288 289 285 282 280 280 281 282 280 282 282 283 287 292 293 292 290 289 289 289 289 289 289 288
291 291 290 290 290 288 286 281 281 281 282 278 279 280 283 285 293 293 292 290 288 288 288 288 288 288 287
295 295 295 295 292 286 283 283 277 280 281 281 280 281 281 283 285 291 292 291 289 288 287 287 287 287 281
291 294 294 294 294 288 285 284 279 278 281 281 280 281 280 282 283 285 285 290 289 286 285 286 286 280 278
287 288 288 289 288 284 286 286 281 280 283 283 282 282 283 280 282 283 283 282 281 280 283 284 284 283 278
287 286 285 284 283 284 284 283 284 284 285 285 283 283 283 280 280 281 281 280 279 279 279 281 282 283 283
286 285 284 283 283 282 282 282 282 283 285 284 285 285 284 282 280 279 279 279 279 278 277 277 277 277 276
286 282 283 283 282 282 281 282 281 280 282 284 284 284 283 282 281 278 278 275 277 277 277 277 277 278 277
284 283 283 282 282 282 282 282 279 278 279 281 281 282 282 281 278 278 276 276 276 276 275 274 276 276 276
284 284 283 283 281 282 283 281 279 279 278 279 279 278 279 279 282 277 277 275 275 276 276 272 272 275 276
285 284 284 283 283 282 282 281 280 279 279 279 278 277 275 275 277 281 275 274 273 272 274 273 271 274 276
Wind_Speed
3 3 3 8 5 4 5 6 6 13 13 12 11 9 8 7 5 5 5 6 7 9 10 12 14 16 17
3 4 4 5 6 6 5 5 5 11 13 12 11 9 7 6 5 4 4 5 6 8 9 11 13 15 16
4 3 4 4 4 4 3 4 3 9 12 12 10 9 8 7 5 3 3 3 4 6 8 10 13 15 17
4 8 6 3 5 7 4 1 3 3 5 7 9 10 9 8 6 4 2 2 3 5 7 10 12 15 16
7 5 5 7 13 5 4 3 0 2 3 2 2 3 3 8 6 7 4 2 2 5 7 10 12 14 15
6 11 12 10 7 8 5 5 5 3 4 3 4 4 4 3 8 9 6 3 1 4 8 10 11 13 15
14 13 11 15 12 10 6 4 4 3 4 4 4 4 4 5 12 11 8 5 0 5 7 8 10 12 14
12 12 8 14 14 9 9 6 4 2 3 3 3 4 2 3 11 10 9 6 1 5 7 9 10 12 13
10 13 15 22 16 10 8 9 2 3 3 4 3 3 2 2 2 9 8 7 3 5 6 9 10 10 6
6 10 14 17 22 12 11 11 4 2 5 4 3 4 2 1 3 1 1 7 5 1 5 8 10 3 3
7 6 7 9 7 5 7 8 5 2 7 5 3 2 3 3 1 2 3 2 2 3 5 7 9 7 3
8 6 7 6 5 6 7 6 4 3 9 5 3 3 4 3 3 1 1 1 2 1 2 5 6 7 8
8 6 4 6 9 8 7 10 9 6 4 3 3 4 2 3 3 2 3 1 2 1 2 2 2 2 2
8 6 8 7 7 4 5 5 5 4 7 7 6 3 3 2 3 3 1 3 1 0 1 3 3 2 3
10 9 9 8 5 4 6 4 3 4 3 4 7 8 5 3 2 2 2 1 1 1 1 2 3 2 2
10 11 11 10 9 6 6 3 5 5 5 3 3 3 2 3 4 3 2 2 0 2 1 1 2 2 3
11 11 11 9 14 9 8 7 6 6 4 4 4 2 3 3 0 3 3 1 1 1 1 1 2 5 3
Wind_Direction
124 145 138 148 138 142 139 135 146 166 169 168 163 158 145 122 110 90 74 51 41 30 25 21 12 7 3
138 132 143 148 147 141 156 149 145 177 178 178 175 166 159 142 133 107 77 55 38 30 24 21 10 3 2
145 136 116 153 127 130 151 138 171 179 187 185 183 182 176 168 156 135 90 61 35 28 25 17 7 3 3
113 150 149 134 141 159 160 122 173 174 177 177 189 191 189 188 174 160 120 63 18 18 18 15 7 4 2
144 143 154 164 182 161 141 133 247 147 150 195 171 160 211 198 183 183 167 155 13 7 12 11 6 3 2
164 175 184 175 167 171 130 139 200 208 147 212 149 195 202 201 202 201 182 167 7 4 5 2 1 2 5
168 181 174 183 161 167 177 145 170 194 118 190 175 209 208 211 208 196 188 186 24 360 357 351 358 2 3
179 181 174 167 175 178 167 121 78 73 135 167 166 205 174 196 203 197 197 198 247 349 345 341 354 360 358
151 157 160 167 159 132 157 156 141 196 193 130 179 118 144 169 225 206 205 211 235 304 337 345 348 6 346
142 157 157 170 165 170 160 172 134 97 211 133 132 143 164 169 160 147 57 197 221 4 357 347 344 8 336
127 135 143 162 163 135 160 161 145 175 181 126 145 133 89 131 170 157 172 157 98 61 9 348 348 348 324
140 148 154 151 135 121 111 99 74 138 154 115 130 152 124 153 150 179 136 120 100 51 357 340 346 354 349
162 163 142 126 118 102 96 96 74 57 72 83 130 125 118 112 142 163 147 156 83 61 319 341 309 283 320
153 118 122 133 138 129 126 131 100 74 42 57 75 96 103 77 123 135 130 152 154 330 319 300 294 340 354
146 146 143 139 136 125 122 125 103 130 110 61 67 74 65 112 103 113 141 143 191 281 87 281 299 321 314
151 154 155 157 146 133 130 120 127 136 130 130 126 84 57 39 61 141 127 159 200 345 358 326 274 287 311
157 157 152 153 147 150 142 136 126 135 136 140 146 126 137 188 209 46 146 156 62 11 264 198 276 298 308